Year,Month,Day,Hour,Minute,Value (Times are PST for insolation in W/m^2)
2009,01,29,00,00,0.00
2009,01,29,00,01,0.00
2009,01,29,00,02,0.00
2009,01,29,00,03,0.00
2009,01,29,00,04,0.00
2009,01,29,00,05,0.00
2009,01,29,00,06,0.00
2009,01,29,00,07,0.00
2009,01,29,00,08,0.00
2009,01,29,00,09,0.00
2009,01,29,00,10,0.00
2009,01,29,00,11,0.00
2009,01,29,00,12,0.00
2009,01,29,00,13,0.00
2009,01,29,00,14,0.00
2009,01,29,00,15,0.00
2009,01,29,00,16,0.00
2009,01,29,00,17,0.00
2009,01,29,00,18,0.00
2009,01,29,00,19,0.00
2009,01,29,00,20,0.00
2009,01,29,00,21,0.00
2009,01,29,00,22,0.00
2009,01,29,00,23,0.00
2009,01,29,00,24,0.00
2009,01,29,00,25,0.00
2009,01,29,00,26,0.00
2009,01,29,00,27,0.00
2009,01,29,00,28,0.00
2009,01,29,00,29,0.00
2009,01,29,00,30,0.00
2009,01,29,00,31,0.00
2009,01,29,00,32,0.00
2009,01,29,00,33,0.00
2009,01,29,00,34,0.00
2009,01,29,00,35,0.00
2009,01,29,00,36,0.00
2009,01,29,00,37,0.00
2009,01,29,00,38,0.00
2009,01,29,00,39,0.00
2009,01,29,00,40,0.00
2009,01,29,00,41,0.00
2009,01,29,00,42,0.00
2009,01,29,00,43,0.00
2009,01,29,00,44,0.00
2009,01,29,00,45,0.00
2009,01,29,00,46,0.00
2009,01,29,00,47,0.00
2009,01,29,00,48,0.00
2009,01,29,00,49,0.00
2009,01,29,00,50,0.00
2009,01,29,00,51,0.00
2009,01,29,00,52,0.00
2009,01,29,00,53,0.00
2009,01,29,00,54,0.00
2009,01,29,00,55,0.00
2009,01,29,00,56,0.00
2009,01,29,00,57,0.00
2009,01,29,00,58,0.00
2009,01,29,00,59,0.00
2009,01,29,01,00,0.00
2009,01,29,01,01,0.00
2009,01,29,01,02,0.00
2009,01,29,01,03,0.00
2009,01,29,01,04,0.00
2009,01,29,01,05,0.00
2009,01,29,01,06,0.00
2009,01,29,01,07,0.00
2009,01,29,01,08,0.00
2009,01,29,01,09,0.00
2009,01,29,01,10,0.00
2009,01,29,01,11,0.00
2009,01,29,01,12,0.00
2009,01,29,01,13,0.00
2009,01,29,01,14,0.00
2009,01,29,01,15,0.00
2009,01,29,01,16,0.00
2009,01,29,01,17,0.00
2009,01,29,01,18,0.00
2009,01,29,01,19,0.00
2009,01,29,01,20,0.00
2009,01,29,01,21,0.00
2009,01,29,01,22,0.00
2009,01,29,01,23,0.00
2009,01,29,01,24,0.00
2009,01,29,01,25,0.00
2009,01,29,01,26,0.00
2009,01,29,01,27,0.00
2009,01,29,01,28,0.00
2009,01,29,01,29,0.00
2009,01,29,01,30,0.00
2009,01,29,01,31,0.00
2009,01,29,01,32,0.00
2009,01,29,01,33,0.00
2009,01,29,01,34,0.00
2009,01,29,01,35,0.00
2009,01,29,01,36,0.00
2009,01,29,01,37,0.00
2009,01,29,01,38,0.00
2009,01,29,01,39,0.00
2009,01,29,01,40,0.00
2009,01,29,01,41,0.00
2009,01,29,01,42,0.00
2009,01,29,01,43,0.00
2009,01,29,01,44,0.00
2009,01,29,01,45,0.00
2009,01,29,01,46,0.00
2009,01,29,01,47,0.00
2009,01,29,01,48,0.00
2009,01,29,01,49,0.00
2009,01,29,01,50,0.00
2009,01,29,01,51,0.00
2009,01,29,01,52,0.00
2009,01,29,01,53,0.00
2009,01,29,01,54,0.00
2009,01,29,01,55,0.00
2009,01,29,01,56,0.00
2009,01,29,01,57,0.00
2009,01,29,01,58,0.00
2009,01,29,01,59,0.00
2009,01,29,02,00,0.00
2009,01,29,02,01,0.00
2009,01,29,02,02,0.00
2009,01,29,02,03,0.00
2009,01,29,02,04,0.00
2009,01,29,02,05,0.00
2009,01,29,02,06,0.00
2009,01,29,02,07,0.00
2009,01,29,02,08,0.00
2009,01,29,02,09,0.00
2009,01,29,02,10,0.00
2009,01,29,02,11,0.00
2009,01,29,02,12,0.00
2009,01,29,02,13,0.00
2009,01,29,02,14,0.00
2009,01,29,02,15,0.00
2009,01,29,02,16,0.00
2009,01,29,02,17,0.00
2009,01,29,02,18,0.00
2009,01,29,02,19,0.00
2009,01,29,02,20,0.00
2009,01,29,02,21,0.00
2009,01,29,02,22,0.00
2009,01,29,02,23,0.00
2009,01,29,02,24,0.00
2009,01,29,02,25,0.00
2009,01,29,02,26,0.00
2009,01,29,02,27,0.00
2009,01,29,02,28,0.00
2009,01,29,02,29,0.00
2009,01,29,02,30,0.00
2009,01,29,02,31,0.00
2009,01,29,02,32,0.00
2009,01,29,02,33,0.00
2009,01,29,02,34,0.00
2009,01,29,02,35,0.00
2009,01,29,02,36,0.00
2009,01,29,02,37,0.00
2009,01,29,02,38,0.00
2009,01,29,02,39,0.00
2009,01,29,02,40,0.00
2009,01,29,02,41,0.00
2009,01,29,02,42,0.00
2009,01,29,02,43,0.00
2009,01,29,02,44,0.00
2009,01,29,02,45,0.00
2009,01,29,02,46,0.00
2009,01,29,02,47,0.00
2009,01,29,02,48,0.00
2009,01,29,02,49,0.00
2009,01,29,02,50,0.00
2009,01,29,02,51,0.00
2009,01,29,02,52,0.00
2009,01,29,02,53,0.00
2009,01,29,02,54,0.00
2009,01,29,02,55,0.00
2009,01,29,02,56,0.00
2009,01,29,02,57,0.00
2009,01,29,02,58,0.00
2009,01,29,02,59,0.00
2009,01,29,03,00,0.00
2009,01,29,03,01,0.00
2009,01,29,03,02,0.00
2009,01,29,03,03,0.00
2009,01,29,03,04,0.00
2009,01,29,03,05,0.00
2009,01,29,03,06,0.00
2009,01,29,03,07,0.00
2009,01,29,03,08,0.00
2009,01,29,03,09,0.00
2009,01,29,03,10,0.00
2009,01,29,03,11,0.00
2009,01,29,03,12,0.00
2009,01,29,03,13,0.00
2009,01,29,03,14,0.00
2009,01,29,03,15,0.00
2009,01,29,03,16,0.00
2009,01,29,03,17,0.00
2009,01,29,03,18,0.00
2009,01,29,03,19,0.00
2009,01,29,03,20,0.00
2009,01,29,03,21,0.00
2009,01,29,03,22,0.00
2009,01,29,03,23,0.00
2009,01,29,03,24,0.00
2009,01,29,03,25,0.00
2009,01,29,03,26,0.00
2009,01,29,03,27,0.00
2009,01,29,03,28,0.00
2009,01,29,03,29,0.00
2009,01,29,03,30,0.00
2009,01,29,03,31,0.00
2009,01,29,03,32,0.00
2009,01,29,03,33,0.00
2009,01,29,03,34,0.00
2009,01,29,03,35,0.00
2009,01,29,03,36,0.00
2009,01,29,03,37,0.00
2009,01,29,03,38,0.00
2009,01,29,03,39,0.00
2009,01,29,03,40,0.00
2009,01,29,03,41,0.00
2009,01,29,03,42,0.00
2009,01,29,03,43,0.00
2009,01,29,03,44,0.00
2009,01,29,03,45,0.00
2009,01,29,03,46,0.00
2009,01,29,03,47,0.00
2009,01,29,03,48,0.00
2009,01,29,03,49,0.00
2009,01,29,03,50,0.00
2009,01,29,03,51,0.00
2009,01,29,03,52,0.00
2009,01,29,03,53,0.00
2009,01,29,03,54,0.00
2009,01,29,03,55,0.00
2009,01,29,03,56,0.00
2009,01,29,03,57,0.00
2009,01,29,03,58,0.00
2009,01,29,03,59,0.00
2009,01,29,04,00,0.00
2009,01,29,04,01,0.00
2009,01,29,04,02,0.00
2009,01,29,04,03,0.00
2009,01,29,04,04,0.00
2009,01,29,04,05,0.00
2009,01,29,04,06,0.00
2009,01,29,04,07,0.00
2009,01,29,04,08,0.00
2009,01,29,04,09,0.00
2009,01,29,04,10,0.00
2009,01,29,04,11,0.00
2009,01,29,04,12,0.00
2009,01,29,04,13,0.00
2009,01,29,04,14,0.00
2009,01,29,04,15,0.00
2009,01,29,04,16,0.00
2009,01,29,04,17,0.00
2009,01,29,04,18,0.00
2009,01,29,04,19,0.00
2009,01,29,04,20,0.00
2009,01,29,04,21,0.00
2009,01,29,04,22,0.00
2009,01,29,04,23,0.00
2009,01,29,04,24,0.00
2009,01,29,04,25,0.00
2009,01,29,04,26,0.00
2009,01,29,04,27,0.00
2009,01,29,04,28,0.00
2009,01,29,04,29,0.00
2009,01,29,04,30,0.00
2009,01,29,04,31,0.00
2009,01,29,04,32,0.00
2009,01,29,04,33,0.00
2009,01,29,04,34,0.00
2009,01,29,04,35,0.00
2009,01,29,04,36,0.00
2009,01,29,04,37,0.00
2009,01,29,04,38,0.00
2009,01,29,04,39,0.00
2009,01,29,04,40,0.00
2009,01,29,04,41,0.00
2009,01,29,04,42,0.00
2009,01,29,04,43,0.00
2009,01,29,04,44,0.00
2009,01,29,04,45,0.00
2009,01,29,04,46,0.00
2009,01,29,04,47,0.00
2009,01,29,04,48,0.00
2009,01,29,04,49,0.00
2009,01,29,04,50,0.00
2009,01,29,04,51,0.00
2009,01,29,04,52,0.00
2009,01,29,04,53,0.00
2009,01,29,04,54,0.00
2009,01,29,04,55,0.00
2009,01,29,04,56,0.00
2009,01,29,04,57,0.00
2009,01,29,04,58,0.00
2009,01,29,04,59,0.00
2009,01,29,05,00,0.00
2009,01,29,05,01,0.00
2009,01,29,05,02,0.00
2009,01,29,05,03,0.00
2009,01,29,05,04,0.00
2009,01,29,05,05,0.00
2009,01,29,05,06,0.00
2009,01,29,05,07,0.00
2009,01,29,05,08,0.00
2009,01,29,05,09,0.00
2009,01,29,05,10,0.00
2009,01,29,05,11,0.00
2009,01,29,05,12,0.00
2009,01,29,05,13,0.00
2009,01,29,05,14,0.00
2009,01,29,05,15,0.00
2009,01,29,05,16,0.00
2009,01,29,05,17,0.00
2009,01,29,05,18,0.00
2009,01,29,05,19,0.00
2009,01,29,05,20,0.00
2009,01,29,05,21,0.00
2009,01,29,05,22,0.00
2009,01,29,05,23,0.00
2009,01,29,05,24,0.00
2009,01,29,05,25,0.00
2009,01,29,05,26,0.00
2009,01,29,05,27,0.00
2009,01,29,05,28,0.00
2009,01,29,05,29,0.00
2009,01,29,05,30,0.00
2009,01,29,05,31,0.00
2009,01,29,05,32,0.00
2009,01,29,05,33,0.00
2009,01,29,05,34,0.00
2009,01,29,05,35,0.00
2009,01,29,05,36,0.00
2009,01,29,05,37,0.00
2009,01,29,05,38,0.00
2009,01,29,05,39,0.00
2009,01,29,05,40,0.00
2009,01,29,05,41,0.00
2009,01,29,05,42,0.00
2009,01,29,05,43,0.00
2009,01,29,05,44,0.00
2009,01,29,05,45,0.00
2009,01,29,05,46,0.00
2009,01,29,05,47,0.00
2009,01,29,05,48,0.00
2009,01,29,05,49,0.00
2009,01,29,05,50,0.00
2009,01,29,05,51,0.00
2009,01,29,05,52,0.00
2009,01,29,05,53,0.00
2009,01,29,05,54,0.00
2009,01,29,05,55,0.00
2009,01,29,05,56,0.00
2009,01,29,05,57,0.00
2009,01,29,05,58,0.00
2009,01,29,05,59,0.00
2009,01,29,06,00,0.00
2009,01,29,06,01,0.00
2009,01,29,06,02,0.00
2009,01,29,06,03,0.00
2009,01,29,06,04,0.00
2009,01,29,06,05,0.00
2009,01,29,06,06,0.00
2009,01,29,06,07,0.00
2009,01,29,06,08,0.00
2009,01,29,06,09,0.00
2009,01,29,06,10,0.00
2009,01,29,06,11,0.00
2009,01,29,06,12,0.00
2009,01,29,06,13,0.00
2009,01,29,06,14,0.00
2009,01,29,06,15,0.00
2009,01,29,06,16,0.00
2009,01,29,06,17,0.00
2009,01,29,06,18,0.00
2009,01,29,06,19,0.00
2009,01,29,06,20,0.00
2009,01,29,06,21,0.00
2009,01,29,06,22,0.00
2009,01,29,06,23,0.00
2009,01,29,06,24,0.00
2009,01,29,06,25,0.00
2009,01,29,06,26,0.00
2009,01,29,06,27,0.00
2009,01,29,06,28,0.00
2009,01,29,06,29,0.00
2009,01,29,06,30,0.00
2009,01,29,06,31,0.00
2009,01,29,06,32,0.00
2009,01,29,06,33,0.00
2009,01,29,06,34,0.00
2009,01,29,06,35,0.00
2009,01,29,06,36,0.00
2009,01,29,06,37,0.00
2009,01,29,06,38,0.00
2009,01,29,06,39,0.00
2009,01,29,06,40,0.00
2009,01,29,06,41,0.00
2009,01,29,06,42,0.00
2009,01,29,06,43,0.00
2009,01,29,06,44,0.00
2009,01,29,06,45,0.00
2009,01,29,06,46,0.00
2009,01,29,06,47,0.00
2009,01,29,06,48,0.00
2009,01,29,06,49,0.00
2009,01,29,06,50,0.00
2009,01,29,06,51,0.00
2009,01,29,06,52,0.00
2009,01,29,06,53,0.00
2009,01,29,06,54,0.00
2009,01,29,06,55,0.00
2009,01,29,06,56,0.00
2009,01,29,06,57,0.00
2009,01,29,06,58,0.00
2009,01,29,06,59,0.00
2009,01,29,07,00,0.00
2009,01,29,07,01,0.00
2009,01,29,07,02,0.00
2009,01,29,07,03,0.00
2009,01,29,07,04,0.00
2009,01,29,07,05,0.00
2009,01,29,07,06,0.00
2009,01,29,07,07,0.00
2009,01,29,07,08,0.00
2009,01,29,07,09,0.00
2009,01,29,07,10,0.00
2009,01,29,07,11,0.00
2009,01,29,07,12,0.00
2009,01,29,07,13,0.00
2009,01,29,07,14,0.00
2009,01,29,07,15,0.00
2009,01,29,07,16,0.00
2009,01,29,07,17,0.00
2009,01,29,07,18,0.00
2009,01,29,07,19,0.00
2009,01,29,07,20,0.00
2009,01,29,07,21,0.00
2009,01,29,07,22,0.00
2009,01,29,07,23,0.00
2009,01,29,07,24,0.00
2009,01,29,07,25,0.00
2009,01,29,07,26,0.00
2009,01,29,07,27,0.00
2009,01,29,07,28,0.00
2009,01,29,07,29,0.00
2009,01,29,07,30,0.00
2009,01,29,07,31,0.00
2009,01,29,07,32,0.00
2009,01,29,07,33,0.00
2009,01,29,07,34,0.00
2009,01,29,07,35,0.00
2009,01,29,07,36,0.00
2009,01,29,07,37,0.00
2009,01,29,07,38,0.00
2009,01,29,07,39,0.00
2009,01,29,07,40,0.00
2009,01,29,07,41,0.00
2009,01,29,07,42,0.00
2009,01,29,07,43,0.00
2009,01,29,07,44,0.00
2009,01,29,07,45,0.00
2009,01,29,07,46,0.00
2009,01,29,07,47,0.00
2009,01,29,07,48,0.00
2009,01,29,07,49,0.00
2009,01,29,07,50,0.00
2009,01,29,07,51,0.00
2009,01,29,07,52,0.00
2009,01,29,07,53,0.00
2009,01,29,07,54,0.00
2009,01,29,07,55,4.50
2009,01,29,07,56,5.00
2009,01,29,07,57,5.00
2009,01,29,07,58,5.70
2009,01,29,07,59,7.00
2009,01,29,08,00,7.00
2009,01,29,08,01,8.40
2009,01,29,08,02,9.00
2009,01,29,08,03,11.00
2009,01,29,08,04,11.00
2009,01,29,08,05,11.00
2009,01,29,08,06,11.00
2009,01,29,08,07,11.40
2009,01,29,08,08,12.00
2009,01,29,08,09,12.00
2009,01,29,08,10,12.00
2009,01,29,08,11,12.00
2009,01,29,08,12,13.70
2009,01,29,08,13,14.00
2009,01,29,08,14,14.00
2009,01,29,08,15,14.00
2009,01,29,08,16,14.00
2009,01,29,08,17,14.00
2009,01,29,08,18,14.00
2009,01,29,08,19,14.00
2009,01,29,08,20,14.00
2009,01,29,08,21,14.00
2009,01,29,08,22,13.70
2009,01,29,08,23,12.00
2009,01,29,08,24,12.00
2009,01,29,08,25,12.00
2009,01,29,08,26,12.00
2009,01,29,08,27,12.00
2009,01,29,08,28,12.00
2009,01,29,08,29,12.00
2009,01,29,08,30,14.00
2009,01,29,08,31,14.00
2009,01,29,08,32,14.00
2009,01,29,08,33,14.00
2009,01,29,08,34,14.00
2009,01,29,08,35,14.00
2009,01,29,08,36,14.00
2009,01,29,08,37,14.00
2009,01,29,08,38,14.00
2009,01,29,08,39,14.00
2009,01,29,08,40,14.00
2009,01,29,08,41,14.70
2009,01,29,08,42,16.00
2009,01,29,08,43,16.00
2009,01,29,08,44,17.40
2009,01,29,08,45,18.00
2009,01,29,08,46,18.00
2009,01,29,08,47,18.00
2009,01,29,08,48,18.20
2009,01,29,08,49,19.00
2009,01,29,08,50,19.70
2009,01,29,08,51,21.00
2009,01,29,08,52,21.00
2009,01,29,08,53,21.00
2009,01,29,08,54,22.80
2009,01,29,08,55,23.00
2009,01,29,08,56,23.20
2009,01,29,08,57,25.00
2009,01,29,08,58,25.30
2009,01,29,08,59,26.90
2009,01,29,09,00,29.20
2009,01,29,09,01,31.20
2009,01,29,09,02,32.80
2009,01,29,09,03,34.90
2009,01,29,09,04,39.00
2009,01,29,09,05,40.00
2009,01,29,09,06,39.70
2009,01,29,09,07,39.00
2009,01,29,09,08,40.60
2009,01,29,09,09,44.60
2009,01,29,09,10,48.00
2009,01,29,09,11,52.80
2009,01,29,09,12,61.70
2009,01,29,09,13,70.40
2009,01,29,09,14,75.60
2009,01,29,09,15,73.00
2009,01,29,09,16,68.90
2009,01,29,09,17,65.20
2009,01,29,09,18,61.10
2009,01,29,09,19,60.00
2009,01,29,09,20,57.00
2009,01,29,09,21,56.00
2009,01,29,09,22,56.00
2009,01,29,09,23,56.00
2009,01,29,09,24,56.60
2009,01,29,09,25,57.20
2009,01,29,09,26,54.80
2009,01,29,09,27,53.30
2009,01,29,09,28,53.80
2009,01,29,09,29,57.80
2009,01,29,09,30,58.10
2009,01,29,09,31,60.00
2009,01,29,09,32,58.80
2009,01,29,09,33,55.30
2009,01,29,09,34,54.00
2009,01,29,09,35,55.30
2009,01,29,09,36,57.50
2009,01,29,09,37,59.80
2009,01,29,09,38,62.00
2009,01,29,09,39,63.00
2009,01,29,09,40,63.00
2009,01,29,09,41,63.70
2009,01,29,09,42,66.70
2009,01,29,09,43,69.60
2009,01,29,09,44,72.40
2009,01,29,09,45,76.50
2009,01,29,09,46,76.10
2009,01,29,09,47,79.60
2009,01,29,09,48,92.50
2009,01,29,09,49,109.00
2009,01,29,09,50,126.40
2009,01,29,09,51,134.50
2009,01,29,09,52,135.00
2009,01,29,09,53,134.20
2009,01,29,09,54,132.50
2009,01,29,09,55,125.00
2009,01,29,09,56,117.60
2009,01,29,09,57,113.50
2009,01,29,09,58,111.00
2009,01,29,09,59,113.90
2009,01,29,10,00,123.30
2009,01,29,10,01,141.00
2009,01,29,10,02,169.40
2009,01,29,10,03,200.40
2009,01,29,10,04,241.00
2009,01,29,10,05,296.20
2009,01,29,10,06,331.60
2009,01,29,10,07,317.20
2009,01,29,10,08,274.50
2009,01,29,10,09,255.50
2009,01,29,10,10,279.70
2009,01,29,10,11,278.20
2009,01,29,10,12,277.90
2009,01,29,10,13,237.40
2009,01,29,10,14,178.80
2009,01,29,10,15,188.00
2009,01,29,10,16,176.00
2009,01,29,10,17,166.50
2009,01,29,10,18,156.00
2009,01,29,10,19,256.20
2009,01,29,10,20,287.00
2009,01,29,10,21,193.00
2009,01,29,10,22,219.90
2009,01,29,10,23,199.80
2009,01,29,10,24,173.70
2009,01,29,10,25,185.10
2009,01,29,10,26,199.30
2009,01,29,10,27,204.00
2009,01,29,10,28,327.20
2009,01,29,10,29,380.00
2009,01,29,10,30,224.20
2009,01,29,10,31,204.80
2009,01,29,10,32,155.20
2009,01,29,10,33,141.00
2009,01,29,10,34,134.00
2009,01,29,10,35,140.60
2009,01,29,10,36,162.10
2009,01,29,10,37,193.50
2009,01,29,10,38,274.00
2009,01,29,10,39,247.30
2009,01,29,10,40,234.90
2009,01,29,10,41,238.20
2009,01,29,10,42,230.00
2009,01,29,10,43,220.70
2009,01,29,10,44,256.40
2009,01,29,10,45,248.70
2009,01,29,10,46,227.90
2009,01,29,10,47,251.00
2009,01,29,10,48,274.00
2009,01,29,10,49,296.00
2009,01,29,10,50,230.40
2009,01,29,10,51,208.20
2009,01,29,10,52,190.50
2009,01,29,10,53,185.40
2009,01,29,10,54,177.60
2009,01,29,10,55,162.80
2009,01,29,10,56,149.60
2009,01,29,10,57,148.00
2009,01,29,10,58,151.50
2009,01,29,10,59,168.60
2009,01,29,11,00,199.90
2009,01,29,11,01,232.00
2009,01,29,11,02,278.70
2009,01,29,11,03,349.20
2009,01,29,11,04,331.10
2009,01,29,11,05,330.90
2009,01,29,11,06,448.60
2009,01,29,11,07,480.70
2009,01,29,11,08,496.00
2009,01,29,11,09,492.90
2009,01,29,11,10,489.00
2009,01,29,11,11,489.00
2009,01,29,11,12,223.60
2009,01,29,11,13,204.90
2009,01,29,11,14,212.90
2009,01,29,11,15,189.40
2009,01,29,11,16,191.30
2009,01,29,11,17,205.30
2009,01,29,11,18,214.90
2009,01,29,11,19,216.00
2009,01,29,11,20,421.50
2009,01,29,11,21,408.00
2009,01,29,11,22,499.50
2009,01,29,11,23,429.00
2009,01,29,11,24,349.50
2009,01,29,11,25,348.00
2009,01,29,11,26,400.90
2009,01,29,11,27,438.00
2009,01,29,11,28,307.20
2009,01,29,11,29,268.60
2009,01,29,11,30,243.80
2009,01,29,11,31,227.20
2009,01,29,11,32,228.50
2009,01,29,11,33,225.60
2009,01,29,11,34,221.80
2009,01,29,11,35,222.90
2009,01,29,11,36,223.60
2009,01,29,11,37,221.50
2009,01,29,11,38,225.00
2009,01,29,11,39,224.40
2009,01,29,11,40,212.40
2009,01,29,11,41,205.40
2009,01,29,11,42,202.60
2009,01,29,11,43,200.00
2009,01,29,11,44,200.00
2009,01,29,11,45,205.40
2009,01,29,11,46,227.30
2009,01,29,11,47,271.00
2009,01,29,11,48,292.50
2009,01,29,11,49,454.00
2009,01,29,11,50,511.90
2009,01,29,11,51,660.20
2009,01,29,11,52,642.60
2009,01,29,11,53,622.00
2009,01,29,11,54,477.10
2009,01,29,11,55,446.00
2009,01,29,11,56,273.60
2009,01,29,11,57,266.50
2009,01,29,11,58,262.20
2009,01,29,11,59,266.00
2009,01,29,12,00,263.50
2009,01,29,12,01,237.60
2009,01,29,12,02,226.10
2009,01,29,12,03,220.40
2009,01,29,12,04,213.00
2009,01,29,12,05,208.80
2009,01,29,12,06,205.10
2009,01,29,12,07,203.50
2009,01,29,12,08,209.40
2009,01,29,12,09,214.80
2009,01,29,12,10,220.90
2009,01,29,12,11,232.70
2009,01,29,12,12,234.10
2009,01,29,12,13,225.00
2009,01,29,12,14,213.90
2009,01,29,12,15,214.90
2009,01,29,12,16,228.80
2009,01,29,12,17,252.60
2009,01,29,12,18,276.00
2009,01,29,12,19,294.90
2009,01,29,12,20,336.20
2009,01,29,12,21,320.00
2009,01,29,12,22,320.80
2009,01,29,12,23,301.00
2009,01,29,12,24,297.20
2009,01,29,12,25,294.60
2009,01,29,12,26,335.00
2009,01,29,12,27,355.50
2009,01,29,12,28,346.00
2009,01,29,12,29,495.10
2009,01,29,12,30,517.00
2009,01,29,12,31,531.90
2009,01,29,12,32,528.60
2009,01,29,12,33,550.00
2009,01,29,12,34,446.50
2009,01,29,12,35,304.80
2009,01,29,12,36,258.90
2009,01,29,12,37,244.40
2009,01,29,12,38,249.40
2009,01,29,12,39,334.00
2009,01,29,12,40,402.80
2009,01,29,12,41,409.80
2009,01,29,12,42,448.00
2009,01,29,12,43,361.70
2009,01,29,12,44,329.00
2009,01,29,12,45,291.60
2009,01,29,12,46,302.40
2009,01,29,12,47,330.00
2009,01,29,12,48,422.40
2009,01,29,12,49,427.00
2009,01,29,12,50,405.80
2009,01,29,12,51,355.00
2009,01,29,12,52,431.50
2009,01,29,12,53,470.70
2009,01,29,12,54,465.30
2009,01,29,12,55,424.70
2009,01,29,12,56,496.00
2009,01,29,12,57,476.00
2009,01,29,12,58,429.40
2009,01,29,12,59,278.00
2009,01,29,13,00,278.00
2009,01,29,13,01,394.50
2009,01,29,13,02,484.50
2009,01,29,13,03,485.70
2009,01,29,13,04,407.80
2009,01,29,13,05,403.80
2009,01,29,13,06,381.60
2009,01,29,13,07,447.80
2009,01,29,13,08,438.10
2009,01,29,13,09,410.70
2009,01,29,13,10,429.40
2009,01,29,13,11,464.40
2009,01,29,13,12,467.80
2009,01,29,13,13,471.00
2009,01,29,13,14,478.00
2009,01,29,13,15,476.60
2009,01,29,13,16,465.90
2009,01,29,13,17,459.60
2009,01,29,13,18,433.10
2009,01,29,13,19,444.80
2009,01,29,13,20,444.10
2009,01,29,13,21,409.80
2009,01,29,13,22,408.00
2009,01,29,13,23,248.90
2009,01,29,13,24,256.20
2009,01,29,13,25,284.70
2009,01,29,13,26,348.00
2009,01,29,13,27,414.50
2009,01,29,13,28,429.80
2009,01,29,13,29,413.00
2009,01,29,13,30,413.00
2009,01,29,13,31,213.60
2009,01,29,13,32,185.80
2009,01,29,13,33,194.30
2009,01,29,13,34,247.00
2009,01,29,13,35,286.50
2009,01,29,13,36,290.00
2009,01,29,13,37,184.20
2009,01,29,13,38,147.00
2009,01,29,13,39,142.60
2009,01,29,13,40,144.70
2009,01,29,13,41,163.90
2009,01,29,13,42,190.10
2009,01,29,13,43,152.10
2009,01,29,13,44,152.20
2009,01,29,13,45,205.80
2009,01,29,13,46,196.00
2009,01,29,13,47,154.60
2009,01,29,13,48,182.80
2009,01,29,13,49,202.40
2009,01,29,13,50,162.90
2009,01,29,13,51,170.80
2009,01,29,13,52,175.90
2009,01,29,13,53,175.40
2009,01,29,13,54,181.80
2009,01,29,13,55,165.40
2009,01,29,13,56,157.10
2009,01,29,13,57,155.00
2009,01,29,13,58,156.60
2009,01,29,13,59,166.00
2009,01,29,14,00,175.90
2009,01,29,14,01,178.00
2009,01,29,14,02,176.80
2009,01,29,14,03,183.40
2009,01,29,14,04,179.40
2009,01,29,14,05,178.40
2009,01,29,14,06,167.60
2009,01,29,14,07,172.90
2009,01,29,14,08,179.20
2009,01,29,14,09,178.50
2009,01,29,14,10,177.20
2009,01,29,14,11,173.70
2009,01,29,14,12,171.70
2009,01,29,14,13,178.00
2009,01,29,14,14,178.90
2009,01,29,14,15,177.60
2009,01,29,14,16,177.00
2009,01,29,14,17,180.90
2009,01,29,14,18,184.60
2009,01,29,14,19,188.40
2009,01,29,14,20,190.00
2009,01,29,14,21,194.70
2009,01,29,14,22,195.00
2009,01,29,14,23,186.30
2009,01,29,14,24,174.90
2009,01,29,14,25,163.50
2009,01,29,14,26,160.00
2009,01,29,14,27,158.70
2009,01,29,14,28,150.40
2009,01,29,14,29,136.00
2009,01,29,14,30,127.00
2009,01,29,14,31,128.20
2009,01,29,14,32,133.70
2009,01,29,14,33,128.50
2009,01,29,14,34,118.50
2009,01,29,14,35,114.60
2009,01,29,14,36,107.80
2009,01,29,14,37,103.10
2009,01,29,14,38,109.20
2009,01,29,14,39,100.00
2009,01,29,14,40,104.10
2009,01,29,14,41,104.00
2009,01,29,14,42,98.50
2009,01,29,14,43,93.00
2009,01,29,14,44,86.50
2009,01,29,14,45,82.10
2009,01,29,14,46,77.70
2009,01,29,14,47,76.10
2009,01,29,14,48,74.20
2009,01,29,14,49,74.20
2009,01,29,14,50,76.00
2009,01,29,14,51,76.00
2009,01,29,14,52,78.60
2009,01,29,14,53,82.90
2009,01,29,14,54,84.00
2009,01,29,14,55,85.50
2009,01,29,14,56,91.00
2009,01,29,14,57,103.80
2009,01,29,14,58,113.90
2009,01,29,14,59,118.60
2009,01,29,15,00,120.50
2009,01,29,15,01,120.40
2009,01,29,15,02,120.00
2009,01,29,15,03,120.80
2009,01,29,15,04,126.60
2009,01,29,15,05,125.20
2009,01,29,15,06,113.10
2009,01,29,15,07,104.20
2009,01,29,15,08,101.30
2009,01,29,15,09,98.70
2009,01,29,15,10,94.60
2009,01,29,15,11,93.00
2009,01,29,15,12,93.00
2009,01,29,15,13,96.80
2009,01,29,15,14,100.20
2009,01,29,15,15,102.00
2009,01,29,15,16,102.90
2009,01,29,15,17,105.00
2009,01,29,15,18,105.00
2009,01,29,15,19,106.20
2009,01,29,15,20,110.10
2009,01,29,15,21,113.40
2009,01,29,15,22,114.00
2009,01,29,15,23,113.40
2009,01,29,15,24,108.10
2009,01,29,15,25,105.60
2009,01,29,15,26,107.00
2009,01,29,15,27,107.00
2009,01,29,15,28,107.00
2009,01,29,15,29,93.80
2009,01,29,15,30,85.30
2009,01,29,15,31,80.80
2009,01,29,15,32,76.90
2009,01,29,15,33,76.20
2009,01,29,15,34,77.70
2009,01,29,15,35,80.10
2009,01,29,15,36,79.70
2009,01,29,15,37,77.50
2009,01,29,15,38,76.10
2009,01,29,15,39,74.30
2009,01,29,15,40,74.00
2009,01,29,15,41,74.40
2009,01,29,15,42,76.30
2009,01,29,15,43,78.40
2009,01,29,15,44,82.00
2009,01,29,15,45,83.00
2009,01,29,15,46,81.60
2009,01,29,15,47,77.20
2009,01,29,15,48,76.00
2009,01,29,15,49,75.50
2009,01,29,15,50,71.50
2009,01,29,15,51,68.90
2009,01,29,15,52,65.30
2009,01,29,15,53,62.50
2009,01,29,15,54,60.70
2009,01,29,15,55,58.20
2009,01,29,15,56,59.70
2009,01,29,15,57,59.90
2009,01,29,15,58,57.30
2009,01,29,15,59,52.50
2009,01,29,16,00,47.00
2009,01,29,16,01,42.90
2009,01,29,16,02,43.30
2009,01,29,16,03,45.60
2009,01,29,16,04,48.40
2009,01,29,16,05,53.00
2009,01,29,16,06,58.70
2009,01,29,16,07,65.90
2009,01,29,16,08,68.30
2009,01,29,16,09,65.40
2009,01,29,16,10,60.20
2009,01,29,16,11,54.50
2009,01,29,16,12,50.20
2009,01,29,16,13,46.50
2009,01,29,16,14,45.90
2009,01,29,16,15,44.00
2009,01,29,16,16,44.00
2009,01,29,16,17,43.30
2009,01,29,16,18,42.00
2009,01,29,16,19,40.90
2009,01,29,16,20,40.00
2009,01,29,16,21,39.10
2009,01,29,16,22,37.00
2009,01,29,16,23,35.00
2009,01,29,16,24,34.60
2009,01,29,16,25,32.70
2009,01,29,16,26,31.30
2009,01,29,16,27,29.10
2009,01,29,16,28,28.00
2009,01,29,16,29,26.40
2009,01,29,16,30,25.20
2009,01,29,16,31,25.00
2009,01,29,16,32,22.80
2009,01,29,16,33,21.00
2009,01,29,16,34,20.30
2009,01,29,16,35,19.00
2009,01,29,16,36,18.50
2009,01,29,16,37,18.00
2009,01,29,16,38,18.00
2009,01,29,16,39,18.00
2009,01,29,16,40,15.90
2009,01,29,16,41,14.00
2009,01,29,16,42,14.00
2009,01,29,16,43,13.30
2009,01,29,16,44,12.00
2009,01,29,16,45,12.00
2009,01,29,16,46,12.00
2009,01,29,16,47,11.20
2009,01,29,16,48,11.00
2009,01,29,16,49,10.80
2009,01,29,16,50,9.00
2009,01,29,16,51,9.00
2009,01,29,16,52,9.00
2009,01,29,16,53,7.80
2009,01,29,16,54,7.00
2009,01,29,16,55,7.00
2009,01,29,16,56,7.00
2009,01,29,16,57,7.00
2009,01,29,16,58,6.80
2009,01,29,16,59,5.00
2009,01,29,17,00,5.00
2009,01,29,17,01,5.00
2009,01,29,17,02,5.00
2009,01,29,17,03,5.00
2009,01,29,17,04,0.60
2009,01,29,17,05,0.00
2009,01,29,17,06,0.00
2009,01,29,17,07,0.00
2009,01,29,17,08,0.00
2009,01,29,17,09,0.00
2009,01,29,17,10,0.00
2009,01,29,17,11,0.00
2009,01,29,17,12,0.00
2009,01,29,17,13,0.00
2009,01,29,17,14,0.00
2009,01,29,17,15,0.00
2009,01,29,17,16,0.00
2009,01,29,17,17,0.00
2009,01,29,17,18,0.00
2009,01,29,17,19,0.00
2009,01,29,17,20,0.00
2009,01,29,17,21,0.00
2009,01,29,17,22,0.00
2009,01,29,17,23,0.00
2009,01,29,17,24,0.00
2009,01,29,17,25,0.00
2009,01,29,17,26,0.00
2009,01,29,17,27,0.00
2009,01,29,17,28,0.00